Location: Goudex
(43.3760°N, 0.9543°E)
Time: 16:23:19
(UTC+00:00)

BREEZE-M DEB (TANK) - Pass Details

Date: 20 November 2019
Orbit: 283 x 20938 km, 49.3° (Epoch: 06 December)

Event Time Altitude Azimuth Distance (km) Brightness Sun altitude
Exits shadow 05:16:45 22° 10° (N) 781 3.1 -17.8°
Drops below altitude 10° 05:18:02 10° 49° (NE) 1,140 4.5 -17.5°
Sets 05:19:47 0° 68° (ENE) 1,976 6.1 -17.2°
